Location: Devore Heights
(34.2372°N, 117.4156°W)
Time: 17:55:27
(UTC+00:00)

Tiros 1 despin weight - Pass Details

Date: 14 September 2024
Orbit: 572 x 614 km, 48.2° (Epoch: 12 October)

Event Time Altitude Azimuth Distance (km) Brightness Sun altitude
Exits shadow 11:45:57 32° 324° (NW) 1,062 ? -22.3°
Maximum altitude 11:46:15 32° 333° (NNW) 1,055 ? -22.2°
Drops below altitude 10° 11:50:22 10° 37° (NE) 1,979 ? -21.4°
Sets 11:52:53 0° 47° (NE) 2,886 ? -21.0°
